Farmington, NM

5:49 AM MST on January 24, 2018 (GMT -0700)
Four Corners Regional

Weather History for KFMN - January, 2013

Change the Weather History Date:

Saturday, January 26, 2013

  Actual Average Record
Temperature  
Mean Temperature 41 °F -  
Max Temperature 45 °F 43 °F 57 °F (2015)
Min Temperature 37 °F 20 °F 5 °F (1988)
Degree Days  
Heating Degree Days 24    
Moisture  
Dew Point 39 °F    
Average Humidity 91    
Maximum Humidity 100    
Minimum Humidity 76    
Precipitation  
Precipitation 0.35 in - - ()
Sea Level Pressure  
Sea Level Pressure 29.95 in    
Wind  
Wind Speed 6 mph (East)    
Max Wind Speed 10 mph    
Max Gust Speed -    
Visibility 7 miles    
Events Fog , Rain    
Averages and records for this station are not official NWS values.
T = Trace of Precipitation, MM = Missing Value Source: NWS Daily Summary

Daily Weather History Graph

Daily Weather History Graph

Search for Another Location

Airport or City:

Trip Planner

Search our weather history database for the weather conditions in past years. The results will help you decide how hot, cold, wet, or windy it might be!

Date:

Astronomy

Jan. 26, 2013 Rise Set
Actual Time 7:19 AM MST 5:32 PM MST
Civil Twilight 6:51 AM MST 5:59 PM MST
Nautical Twilight 6:20 AM MST 6:31 PM MST
Astronomical Twilight 5:49 AM MST 7:01 PM MST
Moon 5:28 PM MST (1/26) 6:39 AM MST (1/26)
Length of Visible Light 11h 08m
Length of Day
10h 13m
Full, 100% of the Moon is Illuminated
Jan 26
Full
Jan 26
Full
Feb 3
Last Quarter
Feb 10
New
Feb 17
First Quarter

Hourly Weather History & Observations

Time (MST) Temp. Windchill Dew Point Humidity Pressure Visibility Wind Dir Wind Speed Gust Speed Precip Events Conditions
12:53 AM 39.0 °F 33.4 °F 33.1 °F 79% 30.16 in 10.0 mi East 8.1 mph - N/A   Clear
1:53 AM 37.9 °F 33.5 °F 33.1 °F 83% 30.14 in 10.0 mi ESE 5.8 mph - N/A   Clear
2:53 AM 37.9 °F 33.5 °F 34.0 °F 86% 30.13 in 10.0 mi East 5.8 mph - 0.00 in Rain Light Rain
3:53 AM 37.9 °F 33.5 °F 35.1 °F 89% 30.11 in 10.0 mi ESE 5.8 mph - 0.01 in Rain Light Rain
4:53 AM 37.0 °F 32.4 °F 35.1 °F 93% 30.10 in 10.0 mi East 5.8 mph - 0.02 in Rain Light Rain
5:53 AM 37.0 °F 32.4 °F 35.1 °F 93% 30.09 in 10.0 mi East 5.8 mph - 0.02 in Rain Light Rain
6:53 AM 37.0 °F 32.4 °F 36.0 °F 96% 30.09 in 5.0 mi ESE 5.8 mph - 0.06 in Rain Light Rain
7:53 AM 37.0 °F 32.4 °F 36.0 °F 96% 30.09 in 5.0 mi East 5.8 mph - 0.06 in Rain Light Rain
8:53 AM 39.0 °F 32.8 °F 37.9 °F 96% 30.05 in 10.0 mi East 9.2 mph - 0.04 in   Overcast
9:53 AM 41.0 °F 34.7 °F 39.0 °F 93% 30.02 in 10.0 mi East 10.4 mph - 0.00 in Rain Light Rain
10:53 AM 43.0 °F 37.7 °F 39.9 °F 89% 30.00 in 10.0 mi East 9.2 mph - 0.00 in Rain Light Rain
11:53 AM 43.0 °F 38.2 °F 39.9 °F 89% 29.97 in 10.0 mi ENE 8.1 mph - 0.00 in   Overcast
12:53 PM 42.1 °F 37.1 °F 39.0 °F 89% 29.94 in 6.0 mi ENE 8.1 mph - 0.05 in Rain Rain
1:19 PM 42.8 °F 38.0 °F 39.2 °F 87% 29.94 in 6.0 mi ENE 8.1 mph - 0.04 in Rain Light Rain
1:53 PM 42.1 °F 37.1 °F 39.9 °F 92% 29.91 in 6.0 mi East 8.1 mph - 0.10 in Rain Light Rain
2:18 PM 42.8 °F 38.6 °F 39.2 °F 87% 29.90 in 7.0 mi NE 6.9 mph - 0.04 in Rain Light Rain
2:53 PM 43.0 °F 38.8 °F 41.0 °F 93% 29.88 in 10.0 mi East 6.9 mph - 0.06 in Rain Light Rain
3:37 PM 42.8 °F 38.6 °F 39.2 °F 87% 29.89 in 6.0 mi East 6.9 mph - 0.05 in Rain Light Rain
3:53 PM 42.1 °F 37.1 °F 39.9 °F 92% 29.88 in 6.0 mi East 8.1 mph - 0.08 in Rain Rain
4:19 PM 42.8 °F 38.6 °F 41.0 °F 93% 29.88 in 7.0 mi East 6.9 mph - 0.05 in Rain Rain
4:29 PM 42.8 °F 39.3 °F 41.0 °F 93% 29.88 in 7.0 mi East 5.8 mph - 0.06 in Rain Light Rain
4:34 PM 42.8 °F 40.1 °F 41.0 °F 93% 29.89 in 7.0 mi ESE 4.6 mph - 0.07 in Rain Light Rain
4:53 PM 42.1 °F 37.1 °F 39.9 °F 92% 29.88 in 10.0 mi East 8.1 mph - 0.08 in Rain Light Rain
5:01 PM 42.8 °F 38.6 °F 39.2 °F 87% 29.88 in 10.0 mi East 6.9 mph - 0.00 in   Overcast
5:28 PM 42.8 °F 37.5 °F 39.2 °F 87% 29.86 in 10.0 mi ENE 9.2 mph - 0.00 in   Overcast
5:39 PM 42.8 °F 37.0 °F 39.2 °F 87% 29.84 in 10.0 mi NE 10.4 mph - 0.00 in   Overcast
5:53 PM 42.1 °F 37.7 °F 39.9 °F 92% 29.86 in 10.0 mi East 6.9 mph - 0.00 in   Overcast
6:10 PM 42.8 °F 37.0 °F 39.2 °F 87% 29.88 in 10.0 mi East 10.4 mph - N/A   Overcast
6:48 PM 42.8 °F 38.6 °F 39.2 °F 87% 29.87 in 10.0 mi East 6.9 mph - N/A   Overcast
6:53 PM 42.1 °F 37.1 °F 39.9 °F 92% 29.87 in 10.0 mi ENE 8.1 mph - N/A   Overcast
7:53 PM 45.0 °F - 42.1 °F 90% 29.86 in 10.0 mi Calm Calm - 0.00 in   Overcast
8:53 PM 44.1 °F - 39.9 °F 85% 29.86 in 10.0 mi Calm Calm - N/A   Overcast
9:30 PM 42.8 °F 39.3 °F 39.2 °F 87% 29.89 in 10.0 mi SSW 5.8 mph - N/A   Overcast
9:40 PM 41.0 °F 37.1 °F 39.2 °F 93% 29.89 in 8.0 mi WSW 5.8 mph - 0.00 in Rain Light Rain
9:53 PM 41.0 °F 37.1 °F 39.9 °F 96% 29.89 in 6.0 mi WSW 5.8 mph - 0.01 in Rain Light Rain
10:01 PM 41.0 °F 37.1 °F 39.2 °F 93% 29.90 in 4.0 mi WSW 5.8 mph - 0.00 in Rain Light Rain
10:09 PM 41.0 °F 38.0 °F 39.2 °F 93% 29.90 in 1.8 mi West 4.6 mph - 0.01 in Rain Light Rain
10:14 PM 41.0 °F 39.0 °F 39.2 °F 93% 29.90 in 0.8 mi NW 3.5 mph - 0.02 in Rain Light Rain
10:22 PM 41.0 °F - 39.2 °F 93% 29.90 in 0.5 mi Calm Calm - 0.02 in Fog , Rain Light Rain
10:27 PM 41.0 °F 39.0 °F 41.0 °F 100% 29.90 in 1.0 mi North 3.5 mph - 0.03 in Rain Light Rain
10:33 PM 41.0 °F 39.0 °F 41.0 °F 100% 29.91 in 3.0 mi North 3.5 mph - 0.03 in Rain Light Rain
10:40 PM 41.0 °F - 41.0 °F 100% 29.91 in 6.0 mi Calm Calm - 0.03 in Rain Light Rain
10:48 PM 41.0 °F - 41.0 °F 100% 29.91 in 8.0 mi Calm Calm - 0.03 in Rain Light Rain
10:53 PM 41.0 °F 39.0 °F 41.0 °F 100% 29.90 in 6.0 mi North 3.5 mph - 0.04 in Rain Light Rain
11:03 PM 41.0 °F 39.0 °F 39.2 °F 93% 29.91 in 9.0 mi NNE 3.5 mph - 0.01 in Rain Light Rain
11:40 PM 41.0 °F 39.0 °F 41.0 °F 100% 29.92 in 1.8 mi SSE 3.5 mph - 0.01 in   Overcast
11:47 PM 42.8 °F - 41.0 °F 93% 29.92 in 2.0 mi Calm Calm - 0.01 in Rain Light Rain
11:53 PM 42.1 °F - 42.1 °F 100% 29.90 in 4.0 mi Calm Calm - 0.01 in Rain Light Rain